Location: Jodlow
(50.1500°N, 16.7500°E)
Time: 03:32:37
(UTC+01:00)

ISS - Visible Passes

Search period start: 25 January 2020 00:00
Search period end: 04 February 2020 00:00
Orbit: 415 x 423 km, 51.6° (Epoch: 25 January)

Date Brightness Start Highest point End Pass type
(mag) Time Alt. Az. Time Alt. Az. Time Alt. Az.
25 Jan -3.0 17:39:06 10° SW 17:42:18 40° SSE 17:44:31 17° E visible
25 Jan -1.8 19:15:38 10° W 19:17:29 30° W 19:17:29 30° W visible
26 Jan -3.9 18:28:04 10° WSW 18:31:29 87° NNW 18:31:56 64° ENE visible
27 Jan -3.7 17:40:34 10° WSW 17:43:57 76° SSE 17:46:22 18° ENE visible
27 Jan -1.8 19:17:28 10° W 19:19:20 29° WNW 19:19:20 29° WNW visible
28 Jan -3.7 18:29:53 10° W 18:33:15 67° N 18:33:44 57° NE visible
29 Jan -3.7 17:42:16 10° W 17:45:40 74° N 17:48:08 17° ENE visible
29 Jan -1.8 19:19:14 10° WNW 19:21:06 30° WNW 19:21:06 30° WNW visible
30 Jan -3.7 18:31:39 10° W 18:35:01 68° N 18:35:30 57° NE visible
31 Jan -3.6 17:44:01 10° W 17:47:24 65° N 17:49:55 17° E visible
31 Jan -1.9 19:20:54 10° WNW 19:22:53 32° W 19:22:53 32° W visible
01 Feb -3.9 18:33:18 10° WNW 18:36:43 88° NNE 18:37:20 57° ESE visible
02 Feb -3.8 17:45:42 10° WNW 17:49:05 75° N 17:51:50 15° E visible
02 Feb -1.9 19:22:36 10° W 19:24:48 31° WSW 19:24:48 31° WSW visible
03 Feb -3.2 18:34:56 10° WNW 18:38:15 55° SSW 18:39:23 35° SE visible
